{"data":{"norad_id":81792,"epoch":"2026-05-24T02:35:27.638592Z","epoch_age_seconds":151841,"freshness":"FRESH","line1":"1 81792U          26144.10795878 -.00000774  00000+0 -23494-3 0  9993","line2":"2 81792  65.8103  90.7915 0893272 210.8414 143.7116 13.11473640101324","mean_motion":13.1147364,"eccentricity":0.0893272,"inclination_deg":65.8103,"raan_deg":90.7915,"arg_perigee_deg":210.8414,"mean_anomaly_deg":143.7116,"bstar":-0.00023494,"rev_number":10132,"period_min":109.8001481753,"perigee_km":538.97003482571,"apogee_km":1895.9575357619,"semimajor_km":7595.6007852938,"source":"CELESTRAK","updated_at":"2026-05-25T13:38:11.083820Z"}}